Location: Miramichi City (Newcastle)
(46.9830°N, 65.5670°W)
Time: 21:51:41
(UTC-04:00)

Iridium 12 - Visible Passes

Search period start: 18 February 2018 00:00
Search period end: 28 February 2018 00:00
Orbit: 776 x 779 km, 86.4° (Epoch: 17 February)

Date Brightness Start Highest point End Pass type
(mag) Time Alt. Az. Time Alt. Az. Time Alt. Az.
18 Feb 6.1 06:51:09 10° S 06:56:18 66° E 07:01:30 10° N visible
18 Feb 6.3 18:58:28 10° NNW 19:03:35 56° W 19:08:39 10° SSW visible
19 Feb 7.2 06:18:10 10° SSE 06:22:55 37° E 06:27:42 10° NNE visible
19 Feb 5.5 18:24:50 10° N 18:30:06 85° E 18:35:19 10° S visible
19 Feb 8.7 20:07:33 10° NW 20:10:03 14° WNW 20:12:32 10° WSW visible
20 Feb 8.2 05:45:42 10° SE 05:49:39 22° E 05:53:35 10° NNE visible
20 Feb 8.0 19:32:49 10° NNW 19:36:53 23° W 19:40:55 10° SW visible
21 Feb 8.8 05:14:16 10° E 05:16:30 13° ENE 05:18:43 10° NE visible
21 Feb 7.1 18:58:45 10° NNW 19:03:36 40° W 19:08:25 10° SSW visible
22 Feb 6.5 06:17:53 10° SSE 06:22:56 52° E 06:28:00 10° NNE visible
22 Feb 6.0 18:24:59 10° N 18:30:12 70° W 18:35:21 10° S visible
23 Feb 7.6 05:45:05 10° SE 05:49:35 30° E 05:54:06 10° NNE visible
23 Feb 8.6 19:33:31 10° NW 19:36:47 17° WNW 19:40:02 10° WSW visible
24 Feb 8.4 05:12:56 10° ESE 05:16:21 18° ENE 05:19:47 10° NE visible
24 Feb 7.8 18:59:08 10° NNW 19:03:34 29° W 19:08:00 10° SW visible
25 Feb 5.8 06:17:48 10° S 06:22:59 74° E 06:28:12 10° N visible
25 Feb 6.7 18:25:12 10° NNW 18:30:15 49° W 18:35:15 10° SSW visible
26 Feb 6.9 05:44:41 10° SSE 05:49:34 42° E 05:54:28 10° NNE visible
26 Feb 8.9 19:34:43 10° NW 19:36:39 12° WNW 19:38:34 10° W visible
27 Feb 7.9 05:12:07 10° SE 05:16:16 25° E 05:20:26 10° NNE visible
27 Feb 8.4 18:59:41 10° NNW 19:03:30 21° WNW 19:07:19 10° SW visible
